Regional Weather Roundup
Issued by NWS

Home | Current Version | Previous Version | Text Only | Print | Product List | Glossary On
Versions: 1 2 3 4 5 6 7 8 9 10 11 12 13 14 15 16 17 18 19 20 21 22 23 24 25 26 27 28 29 30 31 32 33 34 35 36 37 38 39 40 41 42 43 44 45 46 47 48 49 50
000
ASUS44 KFWD 282215
RWRTX
NORTH TEXAS HOURLY WEATHER ROUNDUP
NATIONAL WEATHER SERVICE FORT WORTH TX
400 PM CST FRI NOV 28 2014

NOTE: "FAIR" INDICATES FEW OR NO CLOUDS BELOW 12,000 FEET WITH NO
SIGNIFICANT WEATHER AND/OR OBSTRUCTIONS TO VISIBILITY.

TXZ118-119-282300-
DALLAS/FORT WORTH METROPLEX

CITY           SKY/WX    TMP DP  RH WIND       PRES   REMARKS
DFW AIRPORT    MOSUNNY   69  50  50 S16       30.02F
DALLAS LOVE    MOSUNNY   68  50  52 S16G25    30.04F
FTW MEACHAM    SUNNY     71  49  45 S23G30    30.01F
DAL-EXECUTIVE  SUNNY     70  50  49 S10G26    30.03F
FTW-ALLIANCE   MOSUNNY   70  47  43 SW18G25   30.01F
FTW-SPINKS     SUNNY     72  48  43 S18G28    30.05F
ARLINGTON      SUNNY     71  48  43 S18G24    30.03F
GRAND PRAIRIE  SUNNY     70  52  52 S15G23    30.05F
ADDISON        SUNNY     68  48  49 S14G22    30.04F
MESQUITE       SUNNY     68  48  49 S20G28    30.06F
LANCASTER      SUNNY     68  48  47 SW16G25   30.07F
$$

TXZ091>094-102>105-117-120-121-131>134-282300-
NORTH CENTRAL TEXAS

CITY           SKY/WX    TMP DP  RH WIND       PRES   REMARKS
SHRMAN/DENISON SUNNY     68  51  55 S18G29    30.02S
BOWIE          SUNNY     68  46  44 S17       29.97F
BRIDGEPORT     SUNNY     71  49  46 S16       30.02S
DECATUR        SUNNY     69  45  42 S15       30.00F
DENTON         SUNNY     69  48  47 S21       30.01F
MCKINNEY       LGT RAIN  68  48  48 S23G31    30.03F
GREENVILLE     SUNNY     68  46  45 S22       30.06F
ROCKWALL       SUNNY     68  49  51 S17G33    30.04F
TERRELL        SUNNY     70  50  49 S18G33    30.07F
WAXAHACHIE     SUNNY     69  51  52 S21       30.07F
CLEBURNE       SUNNY     70  48  46 S15G22    30.05F
GRANBURY       SUNNY     73  48  41 S12G18    30.04F
$$

TXZ083>090-098>101-113>116-127>130-139>142-154-155-282300-
WESTERN NORTH TEXAS

CITY           SKY/WX    TMP DP  RH WIND       PRES   REMARKS
WICHITA FALLS  SUNNY     71  44  37 S23       29.92F
WF-KICKAPOO    SUNNY     72  41  32 S15G23    29.95F
VERNON         SUNNY     73  36  25 S18       29.90F
ABILENE        SUNNY     72  40  31 SW23G31   30.01F
ABILENE-DYESS  SUNNY     73  42  33 S18G26    30.00F
BRECKENRIDGE   SUNNY     74  41  31 S18G25    29.99F HAZE
GRAHAM         SUNNY     73  47  39 S15G23    29.96F
MINERAL WELLS  SUNNY     71  46  40 S18G25    30.00F
STEPHENVILLE   SUNNY     71  45  39 SW14G20   30.06F
COMANCHE       SUNNY     71  47  41 S17G25    30.05F
BROWNWOOD      SUNNY     72  41  33 SW16      30.05F
COLEMAN        SUNNY     72  45  37 SW17G24   30.04F
BRADY          SUNNY     72  39  30 S13       30.07S HAZE
$$

TXZ143>147-156>162-174-175-282300-
CENTRAL TEXAS

CITY           SKY/WX    TMP DP  RH WIND       PRES   REMARKS
WACO           SUNNY     71  47  42 S22G29    30.08F
WACO-TSTC      SUNNY     72  50  46 S20       30.09F
WACO-MCGREGOR  SUNNY     72  46  40 S17G26    30.10S
HILLSBORO      SUNNY     71  49  45 S21       30.07F
CORSICANA      SUNNY     70  50  49 S15       30.10F
MEXIA          SUNNY     69  52  53 S14G25    30.10F
HEARNE         MOSUNNY   71  53  51 S16       30.13F
CAMERON        SUNNY     72  51  47 S14G21    30.11F
TEMPLE         SUNNY     70  46  43 S18G25    30.09F
KILLEEN        SUNNY     70  45  41 S14G23    30.10S
KILLEEN-SKYLRK SUNNY     72  46  40 S17       30.07F
FORT HOOD      SUNNY     73  46  38 S12G22    30.09F
GATESVILLE     SUNNY     72  46  40 S16G22    30.10S
HAMILTON       SUNNY     71  46  39 S16G24    30.08F
LAMPASAS       SUNNY     71  47  43 S14G22    30.09S
$$

TXZ095>097-106>112-122>126-135>138-148>153-164>167-282300-
EAST TEXAS

CITY           SKY/WX    TMP DP  RH WIND       PRES   REMARKS
PARIS          SUNNY     66  46  48 S18G26    30.06F
SULPHUR SPRNGS SUNNY     68  48  49 SW22      30.09F
MOUNT PLEASANT SUNNY    N/A N/A N/A S13G21    30.11F
MINEOLA        SUNNY     68  48  49 S13       30.10F
TYLER          SUNNY     68  50  52 S16       30.11F
LONGVIEW       SUNNY     66  48  52 S16       30.12F
MARSHALL       SUNNY     68  48  48 S10G16    30.15F
ATHENS         SUNNY     68  50  52 S9G16     30.09F
PALESTINE      MOSUNNY   69  51  52 S12G23    30.14F
JACKSONVILLE   MOSUNNY   67  51  54 S13       30.15F
HENDERSON      SUNNY     66  49  53 SW8G16    30.14F
NACOGDOCHES    MOSUNNY   68  48  49 SW9       30.17S
LUFKIN         PTSUNNY   69  51  52 S9        30.17F
$$

SUPPLEMENTAL OBSERVATIONS (CENTRAL)

CITY           SKY/WX    TMP DP  RH WIND       PRES   REMARKS
LAKE TEXOMA      N/A     68  48  49 S16         N/A
CADDO GRASSLND   N/A     68  46  45 S17G25      N/A
PAT MAYSE LAKE   N/A     63  45  51 SE21        N/A
GREENVILLE       N/A     68  46  45 S17G26      N/A
CEDAR HILL       N/A     72  50  46 S10G21      N/A
ATHENS           N/A     70  50  49 S14G23      N/A
PALESTINE        N/A     70  50  49 S9G18       N/A
LAKE LIMESTONE   N/A     70  50  49 S14G23      N/A
MCGREGOR         N/A     72  48  43 S14G22      N/A
TEMPLE           N/A     70  48  46 S20G25      N/A
$$

SUPPLEMENTAL OBSERVATIONS (WEST)

CITY           SKY/WX    TMP DP  RH WIND       PRES   REMARKS
MILLERS CREEK    N/A     72  45  37 S16G24      N/A
POSSUM KINGDOM   N/A     72  43  35 S14G23      N/A
LBJ GRASSLAND    N/A     70  45  40 S14         N/A
GRANBURY         N/A     72  46  40 S16G26      N/A
COMANCHE         N/A     72  46  40 SW18G24     N/A
HAMBY            N/A     72  39  30 SW23        N/A
IVIE RESERVOIR   N/A     73  37  27 S14G22      N/A
COLORADO BEND    N/A     70  45  40 S10G22      N/A
$$

SUPPLEMENTAL OBSERVATIONS (EAST)

CITY           SKY/WX    TMP DP  RH WIND       PRES   REMARKS
CLARKSVILLE      N/A     66  46  48 S15G23      N/A
TEXARKANA        N/A     64  41  42 S5G13       N/A
LINDEN           N/A     66  45  45 SW6G15      N/A
CADDO LAKE       N/A     66  45  45 S3          N/A
GILMER           N/A     66  46  48 S9G18       N/A
HENDERSON        N/A     66  46  48 S14         N/A
N SABINE NF      N/A     64  50  59 MISG        N/A
S SABINE NF      N/A     64  48  55 SE2         N/A
$$

SUPPLEMENTAL OBSERVATIONS ARE A COLLECTION OF AUTOMATED INSTRUMENTS
THAT ARE MAINTAINED BY A VARIETY OF FEDERAL AND STATE AGENCIES.
CERTAIN ELEMENTS...SUCH AS HUMIDITY VALUES AND SUSTAINED WIND
SPEEDS...MAY BE APPROXIMATED.




USA.gov is the U.S. government's official web portal to all federal, state and local government web resources and services.